sat.trackr.live / text

‹ back to catalog

STARLINK-30798

NORAD 58196 · 2023-167X

PAYLOAD ACTIVE UNKNOWN

§ Identity

Operator
Country
US
Launch date
2023-10-30
Launch site
AFETR
Launch vehicle
Mass (kg)
RCS (m²)

Purposes: comms

External: N2YO · Heavens-Above · Gunter

§ Orbital elements

Epoch: 2026-05-25T03:08:42.785664Z

Period
94.27 min
Inclination
43.0032°
Eccentricity
0.0001744
Mean motion
15.27586588 rev/d
Perigee alt
481.8 km
Apogee alt
484.2 km
Semi-major
6,861.2 km
B*
-5.6145e-5
RAAN
71.8822°
Arg perigee
271.1636°
Mean anomaly
88.9016°
Rev number
14,267

§ Raw data

STARLINK-307981 58196U 23167X   26145.13105076 -.00001807  00000+0 -56145-4 0  99912 58196  43.0032  71.8822 0001744 271.1636  88.9016 15.27586588142670

JSON: /api/v1/satellites/58196 · /tle

For live sub-satellite position, see the globe view (requires WebGL).

§ Visibility from observer

Set your observer location to see the next 7 days of passes ≥ 10°. The values pass through the URL so the page stays shareable.

No JS? Fill the form by hand. The geolocation button needs JavaScript.